sat.trackr.live / text

‹ back to catalog

STARLINK-37540

NORAD 68914 · 2026-097V

PAYLOAD ACTIVE UNKNOWN

§ Identity

Operator
Country
US
Launch date
2026-04-30
Launch site
AFWTR
Launch vehicle
Mass (kg)
RCS (m²)

Purposes: comms

External: N2YO · Heavens-Above · Gunter

§ Orbital elements

Epoch: 2026-05-25T01:38:19.698720Z

Period
92.95 min
Inclination
97.2857°
Eccentricity
0.0002306
Mean motion
15.49193522 rev/d
Perigee alt
417.5 km
Apogee alt
420.7 km
Semi-major
6,797.2 km
B*
1.1777e-3
RAAN
340.7687°
Arg perigee
79.5142°
Mean anomaly
280.6369°
Rev number
393

§ Raw data

STARLINK-375401 68914U 26097V   26145.06828355  .00064503  00000+0  11777-2 0  99992 68914  97.2857 340.7687 0002306  79.5142 280.6369 15.49193522  3932

JSON: /api/v1/satellites/68914 · /tle

For live sub-satellite position, see the globe view (requires WebGL).

§ Visibility from observer

Set your observer location to see the next 7 days of passes ≥ 10°. The values pass through the URL so the page stays shareable.

No JS? Fill the form by hand. The geolocation button needs JavaScript.